Location: Unspecified
(29.9680°N, 0.0000°E)
Time: 22:46:47
(UTC+00:00)

A-11 Canister half - Pass Details

Date: 22 June 2019
Orbit: 1526 x 1683 km, 47.3° (Epoch: 15 July)

Event Time Altitude Azimuth Distance (km) Brightness Sun altitude
Rises 11:05:10 0° 309° (NW) 4,676 11.4 75.7°
Reaches altitude 10° 11:08:12 10° 310° (NW) 3,695 11.0 76.3°
Maximum altitude 11:17:33 89° 38° (NE) 1,547 11.4 78.1°
Drops below altitude 10° 11:27:05 10° 132° (SE) 3,767 11.4 79.8°
Sets 11:30:12 0° 132° (SE) 4,771 11.7 80.4°
